Regional Weather Roundup
Issued by NWS

Home | Current Version | Previous Version | Graphics & Text | Print | Product List | Glossary On
Versions: 1 2 3 4 5 6 7 8 9 10 11 12 13 14 15 16 17 18 19 20 21 22 23 24 25 26 27 28 29 30 31 32 33 34 35 36 37 38 39 40 41 42 43 44 45 46 47 48 49 50
000
ASUS43 KMPX 130901
RWRMN
WEATHER ROUNDUP FOR MINNESOTA
NATIONAL WEATHER SERVICE TWIN CITIES/CHANHASSEN MN
400 AM CDT SUN JUL 13 2014


NOTE: "FAIR" INDICATES FEW OR NO CLOUDS BELOW 12,000 FEET WITH NO
SIGNIFICANT WEATHER AND/OR OBSTRUCTIONS TO VISIBILITY. N/A MEANS
CURRENT SKY AND/OR WEATHER CONDITIONS ARE NOT AVAILABLE.

MNZ060>063-068>070-131000-
   Twin Cities Metro

CITY           SKY/WX    TMP DP  RH WIND       PRES   REMARKS
TWIN CITIES    PTCLDY    66  64  93 W7        29.90R
ST PAUL        CLEAR     65  63  93 CALM      29.89R
CRYSTAL        CLEAR     67  62  84 NW7       29.89R
BLAINE         CLEAR     64  63  94 NW5       29.90R
LAKEVILLE      CLEAR     64  63  94 W7        29.90S
EDEN PRAIRIE   CLEAR     65  63  93 W5        29.90R
SOUTH ST PAUL  CLEAR     67  64  89 W6        29.90R
LAKE ELMO      FAIR      64  63  94 CALM      29.91R
$$
MNZ001>005-007-008-013>017-022>024-027-028-131000-
   Northwest Minnesota

CITY           SKY/WX    TMP DP  RH WIND       PRES   REMARKS
BEMIDJI        FOG       52  52  99 W7        29.93S VSB 3/4
HALLOCK        CLEAR     57  55  94 SW8       29.89S
ROSEAU         RAIN      55  50  82 W10       29.91R
WARROAD        MOCLDY    54  48  82 W9        29.89S
THIEF RVR FALL CLOUDY    55  54  94 SW8       29.93F VSB 3/4
CROOKSTON      CLEAR     54  54 100 W8        29.94F
FOSSTON        FOG       52  52 100 CALM      29.95S VSB<1/4
DETROIT LAKES  CLOUDY    55  55 100 CALM      29.97F
MOORHEAD       CLEAR     57  57 100 W5        29.97S
PARK RAPIDS    CLEAR     51  51 100 W7        29.94F
$$
MNZ006-009>011-018-025>026-131000-
   North Central Minnesota

CITY           SKY/WX    TMP DP  RH WIND       PRES   REMARKS
BAUDETTE       PTCLDY    51  47  86 VRB3      29.88F
FLAG ISLAND    CLEAR     52  48  87 W15       29.83F
INTL FALLS     CLEAR     48  46  93 W7        29.85F
WASKISH        CLOUDY    59  52  77 W13G20    29.90R
BIG FORK       MOCLDY    48  46  93 SW1       29.91S VSB 1/2
LONGVILLE      CLEAR     48  48 100 CALM      29.92F
GRAND RAPIDS   CLEAR     50  46  87 CALM      29.91S
CRANE LAKE     CLEAR     48  46  93 CALM      29.86F
ORR            CLEAR     46  45  93 CALM      29.85F
COOK           CLOUDY    50  48  93 W3        29.89R
$$
MNZ012-019>021-037-131000-
   Northeast Minnesota

CITY           SKY/WX    TMP DP  RH WIND       PRES   REMARKS
DULUTH         CLEAR     55  50  83 NW13      29.87S
ELY            CLEAR     50  48  93 W5        29.86R
HIBBING        CLEAR     52  49  89 W5        29.89S
EVELETH        CLEAR     52  50  93 NW8       29.89S
DULUTH HARBOR  CLEAR     61  54  77 NW9       29.88R
TWO HARBORS    CLEAR     54  48  82 NW7       29.84R
SILVER BAY     CLEAR     54  54 100 W5        29.82S
GRAND MARAIS     N/A     54  48  80 SW8       29.75S
G MARAIS ARPRT CLEAR     50  45  81 NW13G20   29.79R
$$
MNZ029>031-032-039>041-046>048-054>057-064-131000-
   West Central Minnesota

CITY           SKY/WX    TMP DP  RH WIND       PRES   REMARKS
FERGUS FALLS   CLEAR     55  54  94 N7        29.98S
WHEATON        PTCLDY    57  54  88 NW3       30.00R
MORRIS         CLEAR     57  55  94 NW6       29.96S
ALEXANDRIA     PTCLDY    60  55  83 N8        29.97S
ELBOW LAKE     FAIR      59  55  88 N7        29.97S
WADENA         CLEAR     54  52  94 CALM      29.95F
GLENWOOD       CLEAR     57  54  88 NW6       29.97R
APPLETON       CLEAR     59  55  88 W5        29.97R
BENSON         CLEAR     57  55  94 NW6       29.97R
ORTONVILLE     CLEAR     61  55  82 W6        29.98S
MADISON        CLEAR     63  59  88 NW6       29.98R
WILLMAR        FAIR      63  59  88 CALM      29.96R
$$
MNZ033>034-036-042>043-049>051-058-059-131000-
   Central Minnesota

CITY           SKY/WX    TMP DP  RH WIND       PRES   REMARKS
ST CLOUD       CLEAR     62  57  83 NW6       29.92R
SAUK CENTRE    FAIR      55  53  93 NW3       29.96R
PAYNESVILLE    CLEAR     55  53  92 CALM      29.95R
AITKIN         CLEAR     55  48  76 CALM      29.92S HAZE
PINE RIVER     CLEAR     54  52  94 CALM      29.97S
BRAINERD       CLEAR     61  51  70 NW5       29.94S
STAPLES        CLEAR     54  52  94 W3        29.95S
LONG PRAIRIE   FAIR      55  52  88 NW7       29.95S
LITTLE FALLS   CLEAR     59  52  77 N3        29.93S
LITCHFIELD     CLEAR     64  63  94 NW3       29.95R
BUFFALO        CLEAR     64  59  82 NW5       29.93R
MAPLE LAKE     CLEAR     63  60  89 NW5       29.93R
$$
MNZ037-044-045-052-053-131000-
   East Central Minnesota

CITY           SKY/WX    TMP DP  RH WIND       PRES   REMARKS
PRINCETON      PTCLDY    61  57  88 NW6       29.92R
MORA           CLEAR     55  52  88 CALM      29.93R
CAMBRIDGE      CLEAR     61  54  77 CALM      29.89S
RUSH CITY      MOCLDY    58  55  88 CALM      29.91R
MOOSE LAKE     CLEAR     54  52  94 CALM      29.89R
HINCKLEY       FAIR      59  55  88 NW5       29.90S
CLOQUET        CLEAR     54  50  87 NW7       29.89S
MCGREGOR       CLEAR     54  52  94 NW3       29.92S
$$
MNZ071>073-080-081-089-090-097-098-131000-
   Southwest Minnesota

CITY           SKY/WX    TMP DP  RH WIND       PRES   REMARKS
MONTEVIDEO     CLEAR     63  61  94 NW5       29.97R
GRANITE FALLS  CLEAR     64  61  90 W8        29.98R
CANBY          CLEAR     63  59  87 NW6       30.00R
MARSHALL       CLEAR     66  61  82 NW6       29.97R
REDWOOD FALLS  CLEAR     67  63  87 W9        29.94R
OLIVIA         CLEAR     64  61  88 NW6       29.95R
PIPESTONE      CLEAR     64  63  94 W5        30.01S
WINDOM         CLEAR     64  63  94 CALM      29.98S
WORTHINGTON    CLEAR     66  63  88 W8        30.01S
JACKSON        CLEAR     64  61  88 W5        29.99S
TRACY          CLEAR     68  64  86 W6        29.98S
SLAYTON        CLEAR     65  63  93 CALM      30.01S
$$
MNZ065>067-074>077-082>085-091>093-131000-
   South Central Minnesota

CITY           SKY/WX    TMP DP  RH WIND       PRES   REMARKS
MANKATO        CLEAR     66  61  82 SW9       29.94R
NEW ULM        CLEAR     66  66 100 W10       29.94S
ST JAMES       PTCLDY    66  63  88 W5        29.96S
FAIRMONT       PTCLDY    66  61  82 W8        29.97S
GLENCOE        CLEAR     67  62  83 W6        29.92R
FARIBAULT      PTCLDY    68  63  83 SW5       29.93S
OWATONNA       PTCLDY    66  63  88 SW7       29.94R
WASECA         MOCLDY    61  57  88 SW7       29.96S
ALBERT LEA     CLEAR     66  64  94 W5        29.96S
$$
MNZ078>079-086>088-094>096-131000-
   Southeast Minnesota

CITY           SKY/WX    TMP DP  RH WIND       PRES   REMARKS
ROCHESTER      CLEAR     63  60  90 SW9       29.95F
RED WING       PTCLDY    64  63  94 W5        29.89S
STANTON        CLEAR     66  64  91 SW9       29.90S
DODGE CENTER   PTCLDY    63  63 100 W8        29.94S FOG
WINONA         CLEAR     63  61  94 CALM      29.91S FOG
AUSTIN         FOG       61  61 100 SW3       29.96S VSB 3/4
PRESTON        CLEAR     64  64  97 W8        29.95S
$$
ABBREVIATIONS USED IN REMARKS
   TC - TEMPERATURES IN CELSIUS
  WCI - WIND CHILL INDEX
   HX - HEAT INDEX
  VSB - VISIBILITY
$$


USA.gov is the U.S. government's official web portal to all federal, state and local government web resources and services.